AMX667 MMMZ-MMGL

Flight info

Callsign AMX667
Flight time 0h 49m
Altitude 33000
Route MZT5B MZT UJ7 AMULA AMULA1B
Aircraft B738/M-SDE2E3FGHIRWXY/LB1

Departure

Time 2026-05-07 04:31
Airport General Rafael Buelna International Airport (MMMZ)

Arrival

Time 2026-05-07 05:20
Airport Guadalajara International Airport (MMGL)
Time Latitude Longitude Altitude Speed Heading
2026-05-07 03:43 23.16570 -106.27087 47 ft 0 kts 316°
2026-05-07 04:14 23.16562 -106.27078 48 ft 2 kts 319°
2026-05-07 04:14 23.16549 -106.27067 47 ft 2 kts 323°
2026-05-07 04:15 23.16536 -106.27057 45 ft 2 kts 332°
2026-05-07 04:15 23.16520 -106.27050 48 ft 2 kts 345°
2026-05-07 04:15 23.16504 -106.27048 43 ft 2 kts 11°
2026-05-07 04:15 23.16489 -106.27056 48 ft 2 kts 51°
2026-05-07 04:16 23.16483 -106.27068 48 ft 1 kts 82°
2026-05-07 04:16 23.16483 -106.27070 48 ft 0 kts 85°
2026-05-07 04:23 23.16483 -106.27069 47 ft 0 kts 85°
2026-05-07 04:24 23.16483 -106.27057 47 ft 3 kts 89°
2026-05-07 04:24 23.16481 -106.27018 47 ft 7 kts 97°
2026-05-07 04:24 23.16477 -106.26948 47 ft 11 kts 92°
2026-05-07 04:24 23.16465 -106.26863 47 ft 7 kts 133°
2026-05-07 04:25 23.16421 -106.26850 47 ft 8 kts 179°
2026-05-07 04:25 23.16355 -106.26854 48 ft 11 kts 180°
2026-05-07 04:25 23.16277 -106.26817 48 ft 13 kts 128°
2026-05-07 04:25 23.16237 -106.26758 46 ft 8 kts 123°
2026-05-07 04:26 23.16204 -106.26703 47 ft 9 kts 123°
2026-05-07 04:26 23.16172 -106.26638 47 ft 10 kts 113°
2026-05-07 04:26 23.16152 -106.26560 48 ft 11 kts 99°
2026-05-07 04:26 23.16149 -106.26471 47 ft 13 kts 92°
2026-05-07 04:27 23.16147 -106.26367 46 ft 15 kts 93°
2026-05-07 04:27 23.16139 -106.26250 46 ft 16 kts 94°
2026-05-07 04:27 23.16133 -106.26126 47 ft 17 kts 92°
2026-05-07 04:27 23.16127 -106.25995 47 ft 18 kts 94°
2026-05-07 04:28 23.16119 -106.25855 47 ft 19 kts 93°
2026-05-07 04:28 23.16113 -106.25705 47 ft 20 kts 92°
2026-05-07 04:28 23.16107 -106.25550 47 ft 21 kts 92°
2026-05-07 04:28 23.16101 -106.25387 47 ft 22 kts 92°
2026-05-07 04:29 23.16107 -106.25243 47 ft 15 kts 66°
2026-05-07 04:29 23.16118 -106.25159 47 ft 9 kts 122°
2026-05-07 04:29 23.16091 -106.25168 47 ft 4 kts 242°
2026-05-07 04:29 23.16089 -106.25200 45 ft 0 kts 273°
2026-05-07 04:30 23.16098 -106.25389 42 ft 70 kts 273°
2026-05-07 04:30 23.16138 -106.26245 47 ft 154 kts 273°
2026-05-07 04:30 23.16206 -106.27591 477 ft 193 kts 274°
2026-05-07 04:31 23.16259 -106.29098 1348 ft 204 kts 274°
2026-05-07 04:31 23.16305 -106.30627 2430 ft 209 kts 273°
2026-05-07 04:31 23.16372 -106.32304 2754 ft 234 kts 273°
2026-05-07 04:31 23.16444 -106.34127 3192 ft 246 kts 273°
2026-05-07 04:32 23.16493 -106.35393 3573 ft 251 kts 272°
2026-05-07 04:32 23.16567 -106.37360 3970 ft 268 kts 272°
2026-05-07 04:32 23.16669 -106.40080 4966 ft 275 kts 272°
2026-05-07 04:32 23.16718 -106.42154 5857 ft 275 kts 265°
2026-05-07 04:33 23.16430 -106.43524 6426 ft 276 kts 246°
2026-05-07 04:33 23.15313 -106.45197 7240 ft 277 kts 220°
2026-05-07 04:33 23.13607 -106.46171 8021 ft 283 kts 195°
2026-05-07 04:33 23.11629 -106.46222 8767 ft 290 kts 169°
2026-05-07 04:34 23.09783 -106.45306 9531 ft 298 kts 143°
2026-05-07 04:34 23.08434 -106.43576 10230 ft 308 kts 119°
2026-05-07 04:34 23.07831 -106.41273 10496 ft 333 kts 92°
2026-05-07 04:34 23.08244 -106.38730 10672 ft 356 kts 67°
2026-05-07 04:35 23.09603 -106.36404 10825 ft 376 kts 51°
2026-05-07 04:35 23.11310 -106.34154 10962 ft 395 kts 50°
2026-05-07 04:35 23.13018 -106.31786 11078 ft 411 kts 54°
2026-05-07 04:35 23.14245 -106.28958 11331 ft 421 kts 78°
2026-05-07 04:36 23.14408 -106.25812 11810 ft 420 kts 98°
2026-05-07 04:36 23.13659 -106.22764 12348 ft 417 kts 117°
2026-05-07 04:36 23.12205 -106.20044 12878 ft 416 kts 125°
2026-05-07 04:36 23.10646 -106.17387 13353 ft 419 kts 126°
2026-05-07 04:37 23.09061 -106.14708 13813 ft 422 kts 126°
2026-05-07 04:37 23.07475 -106.12016 14241 ft 424 kts 126°
2026-05-07 04:37 23.05894 -106.09311 14649 ft 426 kts 126°
2026-05-07 04:37 23.04307 -106.06575 15052 ft 429 kts 125°
2026-05-07 04:38 23.02719 -106.03826 15447 ft 431 kts 125°
2026-05-07 04:38 23.01122 -106.01056 15856 ft 434 kts 125°
2026-05-07 04:38 22.99519 -105.98272 16237 ft 436 kts 125°
2026-05-07 04:38 22.97910 -105.95479 16621 ft 438 kts 126°
2026-05-07 04:39 22.96265 -105.92624 16999 ft 440 kts 126°
2026-05-07 04:39 22.94638 -105.89803 17355 ft 442 kts 126°
2026-05-07 04:39 22.93000 -105.86965 17714 ft 444 kts 126°
2026-05-07 04:39 22.91357 -105.84120 18060 ft 447 kts 126°
2026-05-07 04:40 22.89701 -105.81254 18382 ft 449 kts 126°
2026-05-07 04:40 22.88039 -105.78380 18685 ft 450 kts 126°
2026-05-07 04:40 22.86377 -105.75507 18984 ft 452 kts 126°
2026-05-07 04:40 22.84702 -105.72612 19258 ft 454 kts 126°
2026-05-07 04:41 22.83021 -105.69708 19545 ft 455 kts 126°
2026-05-07 04:41 22.81336 -105.66801 19838 ft 457 kts 126°
2026-05-07 04:41 22.79641 -105.63877 20128 ft 459 kts 126°
2026-05-07 04:41 22.77940 -105.60939 20416 ft 460 kts 126°
2026-05-07 04:42 22.76235 -105.57992 20692 ft 462 kts 126°
2026-05-07 04:42 22.74529 -105.55044 20965 ft 464 kts 126°
2026-05-07 04:42 22.72809 -105.52072 21221 ft 465 kts 126°
2026-05-07 04:42 22.71087 -105.49098 21464 ft 467 kts 126°
2026-05-07 04:43 22.69359 -105.46116 21714 ft 468 kts 126°
2026-05-07 04:43 22.67623 -105.43121 21920 ft 470 kts 126°
2026-05-07 04:43 22.65881 -105.40119 22161 ft 472 kts 126°
2026-05-07 04:43 22.64131 -105.37105 22366 ft 473 kts 126°
2026-05-07 04:44 22.62377 -105.34085 22557 ft 475 kts 126°
2026-05-07 04:44 22.60617 -105.31058 22772 ft 476 kts 126°
2026-05-07 04:44 22.58852 -105.28021 22989 ft 477 kts 127°
2026-05-07 04:44 22.57082 -105.24979 23186 ft 478 kts 126°
2026-05-07 04:45 22.55306 -105.21928 23396 ft 479 kts 126°
2026-05-07 04:45 22.53526 -105.18874 23602 ft 481 kts 126°
2026-05-07 04:45 22.51740 -105.15809 23765 ft 482 kts 126°
2026-05-07 04:45 22.49948 -105.12735 23930 ft 483 kts 126°
2026-05-07 04:46 22.48152 -105.09656 24078 ft 485 kts 126°
2026-05-07 04:46 22.46355 -105.06576 24235 ft 486 kts 126°
2026-05-07 04:46 22.44549 -105.03485 24392 ft 487 kts 127°
2026-05-07 04:46 22.42736 -105.00387 24538 ft 488 kts 127°
2026-05-07 04:47 22.40920 -104.97292 24696 ft 489 kts 127°
2026-05-07 04:47 22.39093 -104.94187 24831 ft 490 kts 127°
2026-05-07 04:47 22.37261 -104.91074 24971 ft 491 kts 127°
2026-05-07 04:47 22.35428 -104.87960 25133 ft 492 kts 127°
2026-05-07 04:48 22.33590 -104.84837 25279 ft 493 kts 127°
2026-05-07 04:48 22.31745 -104.81704 25418 ft 494 kts 127°
2026-05-07 04:48 22.29899 -104.78569 25539 ft 495 kts 127°
2026-05-07 04:48 22.28051 -104.75435 25661 ft 496 kts 127°
2026-05-07 04:49 22.26195 -104.72287 25772 ft 496 kts 127°
2026-05-07 04:49 22.24341 -104.69145 25851 ft 497 kts 127°
2026-05-07 04:49 22.22478 -104.65989 25927 ft 498 kts 127°
2026-05-07 04:49 22.20615 -104.62834 25996 ft 499 kts 127°
2026-05-07 04:50 22.18749 -104.59679 26072 ft 499 kts 127°
2026-05-07 04:50 22.16882 -104.56522 26131 ft 500 kts 127°
2026-05-07 04:50 22.15013 -104.53363 26229 ft 499 kts 127°
2026-05-07 04:50 22.13144 -104.50208 26353 ft 499 kts 127°
2026-05-07 04:51 22.11275 -104.47052 26472 ft 499 kts 127°
2026-05-07 04:51 22.09409 -104.43904 26564 ft 498 kts 127°
2026-05-07 04:51 22.07550 -104.40767 26930 ft 492 kts 127°
2026-05-07 04:51 22.05715 -104.37673 27287 ft 488 kts 127°
2026-05-07 04:52 22.03890 -104.34600 27663 ft 485 kts 127°
2026-05-07 04:52 22.02100 -104.31586 28027 ft 482 kts 127°
2026-05-07 04:52 22.00274 -104.28516 28410 ft 479 kts 127°
2026-05-07 04:52 21.98505 -104.25543 28772 ft 477 kts 127°
2026-05-07 04:53 21.96715 -104.22537 29281 ft 472 kts 127°
2026-05-07 04:53 21.94956 -104.19582 29800 ft 467 kts 127°
2026-05-07 04:53 21.93208 -104.16645 30288 ft 462 kts 127°
2026-05-07 04:53 21.91482 -104.13748 30716 ft 458 kts 127°
2026-05-07 04:54 21.89764 -104.10869 31057 ft 457 kts 127°
2026-05-07 04:54 21.88031 -104.07972 31054 ft 463 kts 127°
2026-05-07 04:54 21.84498 -104.02071 31057 ft 474 kts 127°
2026-05-07 04:55 21.80896 -103.96052 31038 ft 483 kts 127°
2026-05-07 04:55 21.77238 -103.89937 31036 ft 489 kts 127°
2026-05-07 04:56 21.73529 -103.83745 31019 ft 494 kts 127°
2026-05-07 04:56 21.69805 -103.77530 31016 ft 495 kts 127°
2026-05-07 04:57 21.66071 -103.71330 30990 ft 490 kts 129°
2026-05-07 04:57 21.63820 -103.68667 30999 ft 476 kts 145°
2026-05-07 04:57 21.61074 -103.66751 30992 ft 466 kts 159°
2026-05-07 04:58 21.54979 -103.64608 30981 ft 459 kts 167°
2026-05-07 04:58 21.51964 -103.63677 30865 ft 444 kts 167°
2026-05-07 04:58 21.49002 -103.62745 30248 ft 443 kts 167°
2026-05-07 04:59 21.46039 -103.61790 29276 ft 447 kts 166°
2026-05-07 04:59 21.43044 -103.60806 28168 ft 453 kts 166°
2026-05-07 04:59 21.40023 -103.59805 27023 ft 459 kts 165°
2026-05-07 04:59 21.36956 -103.58788 25899 ft 464 kts 165°
2026-05-07 05:00 21.34002 -103.57329 24951 ft 471 kts 149°
2026-05-07 05:00 21.31444 -103.55089 24325 ft 469 kts 137°
2026-05-07 05:00 21.29502 -103.52341 23736 ft 468 kts 124°
2026-05-07 05:00 21.27878 -103.49295 23064 ft 462 kts 122°
2026-05-07 05:01 21.26360 -103.46331 22302 ft 457 kts 122°
2026-05-07 05:01 21.24835 -103.43356 21565 ft 453 kts 122°
2026-05-07 05:01 21.23311 -103.40427 20796 ft 448 kts 122°
2026-05-07 05:01 21.21779 -103.37534 20019 ft 445 kts 122°
2026-05-07 05:02 21.20253 -103.34674 19361 ft 440 kts 122°
2026-05-07 05:02 21.18739 -103.31848 18699 ft 435 kts 122°
2026-05-07 05:02 21.17234 -103.29041 17933 ft 433 kts 122°
2026-05-07 05:02 21.15742 -103.26257 17173 ft 430 kts 122°
2026-05-07 05:03 21.14259 -103.23488 16505 ft 425 kts 122°
2026-05-07 05:03 21.12802 -103.20755 15843 ft 420 kts 122°
2026-05-07 05:03 21.11364 -103.18053 15244 ft 415 kts 122°
2026-05-07 05:03 21.09841 -103.15513 15043 ft 398 kts 133°
2026-05-07 05:04 21.07856 -103.13451 14913 ft 402 kts 139°
2026-05-07 05:04 21.05805 -103.11373 14706 ft 409 kts 138°
2026-05-07 05:04 21.03762 -103.09261 14540 ft 408 kts 137°
2026-05-07 05:04 21.01736 -103.07142 14335 ft 404 kts 137°
2026-05-07 05:05 20.99739 -103.05045 14159 ft 402 kts 137°
2026-05-07 05:05 20.97747 -103.02952 13983 ft 399 kts 137°
2026-05-07 05:05 20.95772 -103.00879 13808 ft 397 kts 137°
2026-05-07 05:05 20.93824 -102.98837 13621 ft 396 kts 137°
2026-05-07 05:06 20.91860 -102.96780 13422 ft 393 kts 137°
2026-05-07 05:06 20.89914 -102.94743 13244 ft 379 kts 137°
2026-05-07 05:06 20.88094 -102.92835 13053 ft 364 kts 137°
2026-05-07 05:06 20.86315 -102.90975 12912 ft 351 kts 137°
2026-05-07 05:07 20.84598 -102.89181 12749 ft 340 kts 137°
2026-05-07 05:07 20.82927 -102.87434 12647 ft 331 kts 137°
2026-05-07 05:07 20.81302 -102.85738 12622 ft 322 kts 137°
2026-05-07 05:07 20.79720 -102.84086 12613 ft 313 kts 137°
2026-05-07 05:08 20.78183 -102.82482 12600 ft 305 kts 137°
2026-05-07 05:08 20.76653 -102.80961 12531 ft 297 kts 146°
2026-05-07 05:08 20.74727 -102.80118 11752 ft 309 kts 174°
2026-05-07 05:08 20.73310 -102.80217 11681 ft 304 kts 191°
2026-05-07 05:09 20.71262 -102.80930 11504 ft 324 kts 207°
2026-05-07 05:09 20.69264 -102.82172 11345 ft 333 kts 211°
2026-05-07 05:09 20.66747 -102.83872 11074 ft 312 kts 212°
2026-05-07 05:09 20.65535 -102.84700 10954 ft 301 kts 212°
2026-05-07 05:10 20.63817 -102.85866 10799 ft 285 kts 212°
2026-05-07 05:10 20.62163 -102.86978 10656 ft 277 kts 212°
2026-05-07 05:10 20.60547 -102.88056 10511 ft 270 kts 212°
2026-05-07 05:10 20.58968 -102.89103 10366 ft 264 kts 213°
2026-05-07 05:11 20.57422 -102.90125 10234 ft 258 kts 213°
2026-05-07 05:11 20.55913 -102.91121 10085 ft 253 kts 213°
2026-05-07 05:11 20.54432 -102.92097 9954 ft 246 kts 213°
2026-05-07 05:11 20.53002 -102.93039 9854 ft 235 kts 213°
2026-05-07 05:12 20.51643 -102.93933 9716 ft 225 kts 214°
2026-05-07 05:12 20.50331 -102.94796 9618 ft 223 kts 213°
2026-05-07 05:12 20.49015 -102.95664 9481 ft 222 kts 213°
2026-05-07 05:12 20.47706 -102.96525 9378 ft 220 kts 214°
2026-05-07 05:13 20.46407 -102.97379 9266 ft 219 kts 214°
2026-05-07 05:13 20.45121 -102.98224 9141 ft 215 kts 213°
2026-05-07 05:13 20.43854 -102.99054 9052 ft 212 kts 214°
2026-05-07 05:13 20.42590 -102.99885 8940 ft 214 kts 213°
2026-05-07 05:14 20.41345 -103.00759 8828 ft 215 kts 225°
2026-05-07 05:14 20.40681 -103.02142 8726 ft 213 kts 267°
2026-05-07 05:14 20.40954 -103.03664 8716 ft 209 kts 285°
2026-05-07 05:14 20.41358 -103.05155 8592 ft 209 kts 287°
2026-05-07 05:15 20.41892 -103.06591 8514 ft 208 kts 293°
2026-05-07 05:15 20.42494 -103.08007 8375 ft 211 kts 293°
2026-05-07 05:15 20.43098 -103.09437 8269 ft 213 kts 293°
2026-05-07 05:15 20.43705 -103.10888 8125 ft 211 kts 293°
2026-05-07 05:16 20.44281 -103.12264 7944 ft 195 kts 292°
2026-05-07 05:16 20.44811 -103.13530 7834 ft 186 kts 292°
2026-05-07 05:16 20.45333 -103.14778 7715 ft 185 kts 292°
2026-05-07 05:16 20.45857 -103.16030 7544 ft 185 kts 293°
2026-05-07 05:17 20.46382 -103.17283 7286 ft 183 kts 293°
2026-05-07 05:17 20.46889 -103.18491 7063 ft 173 kts 292°
2026-05-07 05:17 20.47358 -103.19598 6886 ft 152 kts 293°
2026-05-07 05:17 20.47767 -103.20537 6738 ft 131 kts 294°
2026-05-07 05:18 20.48162 -103.21449 6384 ft 142 kts 292°
2026-05-07 05:18 20.48566 -103.22457 6330 ft 151 kts 292°
2026-05-07 05:18 20.48992 -103.23489 6234 ft 151 kts 293°
2026-05-07 05:18 20.49403 -103.24451 6099 ft 145 kts 292°
2026-05-07 05:19 20.49823 -103.25439 5988 ft 151 kts 291°
2026-05-07 05:19 20.50254 -103.26499 5840 ft 159 kts 293°
2026-05-07 05:19 20.50704 -103.27573 5557 ft 160 kts 292°
2026-05-07 05:19 20.51151 -103.28659 5192 ft 158 kts 292°
2026-05-07 05:20 20.51591 -103.29693 5030 ft 145 kts 290°
2026-05-07 05:20 20.51958 -103.30581 5025 ft 115 kts 294°
2026-05-07 05:20 20.52201 -103.31159 5031 ft 54 kts 294°
2026-05-07 05:20 20.52323 -103.31418 5030 ft 31 kts 308°
2026-05-07 05:21 20.52434 -103.31532 5029 ft 14 kts 328°
2026-05-07 05:21 20.52584 -103.31578 5028 ft 10 kts 24°
2026-05-07 05:21 20.52646 -103.31548 5028 ft 9 kts 24°
2026-05-07 05:22 20.52704 -103.31521 5028 ft 9 kts 24°
2026-05-07 05:22 20.52755 -103.31496 5026 ft 7 kts 28°
2026-05-07 05:22 20.52763 -103.31454 5028 ft 6 kts 105°
2026-05-07 05:22 20.52745 -103.31407 5026 ft 8 kts 113°
2026-05-07 05:23 20.52722 -103.31350 5025 ft 9 kts 113°
2026-05-07 05:23 20.52696 -103.31285 5028 ft 10 kts 114°
2026-05-07 05:23 20.52666 -103.31216 5028 ft 11 kts 114°
2026-05-07 05:23 20.52634 -103.31142 5028 ft 11 kts 114°
2026-05-07 05:24 20.52601 -103.31061 5027 ft 12 kts 114°
2026-05-07 05:24 20.52565 -103.30976 5028 ft 13 kts 114°
2026-05-07 05:24 20.52527 -103.30885 5027 ft 14 kts 114°
2026-05-07 05:24 20.52487 -103.30791 5026 ft 14 kts 114°
2026-05-07 05:25 20.52445 -103.30693 5028 ft 15 kts 114°
2026-05-07 05:25 20.52401 -103.30588 5027 ft 16 kts 114°
2026-05-07 05:25 20.52356 -103.30480 5027 ft 16 kts 114°
2026-05-07 05:25 20.52309 -103.30367 5028 ft 17 kts 114°
2026-05-07 05:26 20.52277 -103.30272 5026 ft 12 kts 80°
2026-05-07 05:26 20.52345 -103.30228 5028 ft 12 kts 19°
2026-05-07 05:26 20.52397 -103.30181 5028 ft 10 kts 91°
2026-05-07 05:26 20.52384 -103.30128 5028 ft 4 kts 109°
2026-05-07 05:27 20.52383 -103.30125 5028 ft 0 kts 109°
2026-05-07 05:27 20.52382 -103.30124 5024 ft 1 kts 109°
2026-05-07 05:27 20.52379 -103.30097 5026 ft 4 kts 74°
2026-05-07 05:27 20.52397 -103.30085 5028 ft 3 kts 25°
2026-05-07 05:28 20.52415 -103.30077 5028 ft 3 kts 21°
2026-05-07 05:28 20.52429 -103.30072 5028 ft 1 kts 20°
2026-05-07 05:28 20.52431 -103.30071 5028 ft 0 kts 20°